Location: Praha
(50.0830°N, 14.4670°E)
Time: 13:42:17
(UTC+01:00)

ISS - Pass Details

Date: 08 December 2018
Orbit: 401 x 408 km, 51.6° (Epoch: 13 December)

Event Time Altitude Azimuth Distance (km) Brightness Sun altitude
Rises 19:12:25 0° 284° (WNW) 2,318 1.1 -29.7°
Reaches altitude 10° 19:14:49 10° 268° (W) 1,455 -0.1 -30.1°
Enters shadow 19:15:24 13° 261° (W) 1,280 -0.5 -30.1°
